Airfield :
LOGIN :

Register | Disclaimer

   EN    FR    IT 

 










Legend :    VFR   Marginal VFR   IFR   Intensive IFR   Very Intensive IFR
Visi :
Ceiling :
>= 8 km
>= 3000ft
5 to 8 km
1000 to 3000 ft
1500m to 5 km
500 to 1000 ft
800 to 1500m
200 to 500 ft
< 800m
< 200 ft
Symbols :   Thunderstorms  Fog  Heavy snow  Heavy precipitations  Wind > 20 kt
SIGMETs :     Misc.  Thunderstorms  Icing  Turbulence  Mountain Waves  Volcanic Ashes







- Airport Elevation : 291 ft
- IATA code : ORY
- Download approach charts


LFPO - Paris-Orly

CURRENT METAR :
  • 290330Z VRB02KT CAVOK 19/16 Q1012 NOSIG

EXPIRED METARs :
  • 290300Z VRB01KT CAVOK 19/16 Q1012 NOSIG
  • 290230Z 00000KT CAVOK 19/16 Q1013 NOSIG
  • 290200Z 25002KT CAVOK 19/15 Q1013 NOSIG
  • 290130Z 00000KT CAVOK 20/15 Q1013 NOSIG
  • 290100Z 13002KT CAVOK 21/15 Q1013 NOSIG

TAF TAF LFPO
Valid from the 29 at 00:00 until the 30 at 06:00 UTC


282300Z 2900/3006 26003KT CAVOK
TEMPO 2900/2906 VRB03KT
PROB30
TEMPO 2906/2911 SCT080CB
TEMPO 2915/2924 24015G25KT -TSRA SCT040CB
TEMPO 3000/3006 -RA BKN010 BKN040
ATIS : +33 1 49 75 65 80
No reported NOTAMs for that airfield.



MET'MAP, your aeronautical weather chart ! - Copyright ORBIFLY December 2007 - Disclaimer

ORBIFLY MET'MAP TEAM :

Programming & Development : Alexandra Zaïnal
Concept & Development : Baudouin d'Aumeries
Co-Development & Prog : Marc-Olivier Méhu
Technical & hardware support : Manuel Goepfert

Contact : metmap@orbifly.com




SOURCES & CREDITS :

   NOAA